Location: Unnamed
(25.0886°N, 121.5256°E)
Time: 00:29:14
(UTC+08:00)

Tiangong - Visible Passes

Search period start: 09 March 2026 00:00
Search period end: 19 March 2026 00:00
Orbit: 381 x 391 km, 41.5° (Epoch: 8 March)

Date Brightness Start Highest point End Pass type
(mag) Time Alt. Az. Time Alt. Az. Time Alt. Az.
9 Mar -2.0 05:21:16 18° WSW 05:23:24 58° NW 05:26:33 10° NE visible
10 Mar -0.4 04:25:19 33° ENE 04:25:19 33° ENE 04:27:17 10° ENE visible
11 Mar -0.9 05:01:24 26° NW 05:01:41 26° NNW 05:04:27 10° NNE visible
12 Mar 1.1 04:05:04 12° NE 04:05:04 12° NE 04:05:21 10° NE visible
13 Mar 0.4 04:40:48 13° N 04:40:48 13° N 04:41:47 10° NNE visible
